GEFSSGP_500_meanwind_018.txt.gz
Wind_Speed
12 11 9 7 4 5 7 7 7 8 9 10 12 13 13 14 15 17 18 20 19 19 19 18 16 15 14 13 13 13 13 13 13 13 13 13 13 13 12 11 11 10 10 9 8 7 6 4 3
12 13 12 10 6 5 6 8 8 8 8 9 10 10 11 12 12 13 15 17 18 18 18 17 16 15 14 13 12 12 11 11 11 11 11 11 11 11 11 11 10 9 8 8 8 6 5 4 4
11 13 14 13 11 9 7 8 8 9 9 9 9 9 10 10 10 11 12 14 15 16 15 15 14 13 12 11 10 10 9 9 9 9 9 9 10 10 10 10 9 7 6 6 7 6 6 5 5
10 11 13 14 14 12 9 8 8 9 11 11 10 10 10 10 9 9 9 11 12 12 11 11 11 11 10 9 9 8 8 8 8 8 8 8 8 8 8 8 7 6 5 4 5 5 6 6 6
11 10 11 13 14 13 11 10 8 9 11 12 13 13 12 11 9 7 6 6 8 7 6 6 7 7 8 8 8 8 7 7 6 6 6 6 6 6 6 6 6 5 4 3 4 4 5 5 7
13 12 11 12 14 13 12 11 9 9 11 13 14 15 14 12 10 7 5 4 4 4 3 3 4 5 5 6 7 7 7 7 6 5 5 5 5 6 6 6 5 4 4 3 4 4 5 6 7
15 15 14 14 13 12 12 11 10 9 10 12 14 15 15 13 11 9 7 5 4 3 1 1 3 4 5 6 7 7 8 9 9 8 8 8 8 8 7 7 7 6 6 5 5 6 6 7 7
19 18 17 17 15 14 12 12 10 10 10 11 13 13 15 14 13 11 9 7 6 4 3 3 4 5 6 7 7 8 9 10 10 11 11 11 11 10 10 9 8 8 8 8 7 7 7 8 8
22 22 21 21 19 17 15 14 13 11 11 11 12 13 14 14 14 12 11 9 8 6 5 4 6 7 8 8 9 9 9 10 11 11 12 13 14 13 12 11 10 9 9 9 9 9 9 9 9
25 24 26 25 21 19 17 17 16 14 13 12 12 14 15 15 15 14 13 12 11 9 8 7 8 10 11 11 10 10 10 11 11 12 12 13 14 14 13 12 12 11 10 10 10 10 10 11 11
28 27 27 25 24 22 21 20 20 19 17 15 14 14 15 16 17 17 16 15 14 13 13 12 12 13 14 14 13 12 11 11 12 12 13 13 14 14 14 14 14 13 12 12 12 12 12 13 13
31 30 29 27 26 25 25 24 24 23 22 20 17 16 17 17 18 18 18 19 18 18 18 18 18 17 17 16 15 14 14 14 14 14 13 14 15 15 16 17 17 16 16 15 14 14 14 15 15
35 33 32 30 29 28 27 27 27 27 25 23 21 20 18 18 18 19 19 20 21 21 21 20 20 20 19 19 18 17 17 17 16 16 15 15 16 18 19 20 20 20 19 18 16 16 16 16 16
38 37 36 34 32 31 31 30 29 29 27 26 25 23 22 21 21 20 20 21 22 22 22 22 22 22 22 22 22 21 21 20 20 19 18 17 18 20 21 21 21 22 21 20 18 17 17 17 17
37 37 38 37 36 35 33 33 33 32 31 30 28 27 26 25 24 23 23 23 24 24 24 24 24 25 25 25 25 25 25 25 24 23 22 21 21 21 22 22 23 23 22 21 19 19 19 18 18
34 36 37 40 39 38 36 35 37 36 35 34 33 32 30 29 28 28 27 27 27 27 27 27 27 28 29 29 30 30 30 29 29 29 27 25 24 24 24 23 24 25 24 24 22 21 20 19 19
31 33 36 40 40 40 39 36 39 39 38 37 36 35 34 33 32 32 31 31 31 31 30 30 30 31 33 34 34 34 34 35 35 34 32 30 27 26 26 26 26 26 27 26 25 24 23 22 21
30 31 34 37 40 41 41 41 42 41 41 41 40 38 36 35 34 34 34 34 35 34 33 33 34 35 36 37 36 37 38 40 40 39 37 34 31 30 30 28 28 27 28 27 27 27 26 25 24
30 31 33 35 39 39 41 42 43 43 43 43 42 41 39 38 37 37 38 37 37 37 36 36 37 38 38 39 40 41 42 44 44 43 41 38 35 33 31 30 30 30 30 29 29 29 28 27 26
29 30 32 35 36 36 39 42 43 43 43 44 44 43 42 41 41 41 40 38 37 36 36 37 38 39 40 42 44 44 44 45 43 43 42 39 36 34 32 31 31 31 32 32 31 30 29 28 27
28 29 31 33 34 34 36 38 40 41 42 43 43 43 43 42 41 39 38 36 36 36 36 38 39 42 43 45 46 46 46 47 48 45 44 41 38 36 34 34 33 33 33 33 33 31 29 28 28
29 31 31 32 32 32 35 35 36 39 39 40 40 40 40 39 38 37 36 35 36 37 38 40 42 43 45 46 47 47 47 48 48 47 44 43 43 40 37 35 34 33 34 33 33 31 30 29 29
33 33 32 33 34 34 36 36 32 39 39 39 38 37 37 37 37 37 37 37 38 40 41 42 44 45 46 48 49 49 49 50 50 50 48 46 43 41 38 37 35 33 33 33 31 30 30 30 29
34 34 35 36 37 39 37 38 37 39 41 39 38 37 37 37 37 38 39 40 41 42 43 45 46 47 48 49 50 50 51 51 51 50 48 45 41 38 36 35 34 33 32 32 32 31 30 31 31
34 35 36 39 40 40 37 42 41 45 43 41 40 40 40 40 41 41 42 43 44 45 45 47 48 49 50 50 51 51 51 51 50 49 46 42 37 36 35 34 33 34 32 32 33 33 32 33 33
31 34 37 39 36 33 40 45 45 47 46 45 45 45 45 45 44 44 44 44 45 45 46 47 48 48 49 50 50 50 50 49 48 46 43 39 35 33 33 32 32 32 32 32 33 33 35 36 36
27 29 32 37 38 38 40 44 44 43 45 46 46 46 46 46 46 45 45 45 45 46 46 46 47 46 46 45 45 44 43 43 42 41 39 37 34 31 29 29 29 29 29 30 31 33 34 36 37
28 28 29 32 35 37 38 38 39 36 38 40 41 42 42 42 42 42 42 42 43 44 44 43 42 41 39 38 37 36 36 36 36 35 32 31 30 28 28 28 27 28 28 29 30 32 33 34 34
31 31 31 33 33 33 35 36 35 32 32 34 35 36 37 37 37 36 36 36 37 37 38 37 37 36 35 35 34 33 33 33 32 31 30 29 28 28 28 27 28 28 29 29 30 31 31 32 32
36 35 34 34 34 34 33 35 33 31 31 30 31 31 33 34 35 35 35 34 34 34 35 35 36 36 35 35 34 32 31 30 29 28 28 28 27 27 28 28 29 30 30 30 31 31 31 31 31

GEFSSGP_500_meanwind_024.txt.gz
Wind_Speed
9 8 8 10 8 10 10 3 5 4 6 9 10 9 12 11 11 14 14 15 15 15 14 14 13 13 12 10 10 10 9 9 9 9 10 10 11 11 10 10 10 10 10 11 11 11 10 10 10
9 8 7 8 7 8 6 5 7 4 5 7 8 9 10 10 11 12 13 14 15 15 14 13 12 12 11 9 9 8 8 8 8 8 8 9 9 9 10 9 9 9 9 10 11 11 11 11 10
9 8 7 5 6 2 4 7 7 5 5 7 7 8 9 9 9 10 11 12 13 13 13 12 11 11 10 9 8 8 7 7 7 8 8 8 8 8 8 8 8 8 9 9 10 10 11 11 11
7 8 8 7 4 6 7 6 7 8 8 9 9 8 8 8 8 8 8 9 9 9 10 9 9 9 8 8 8 7 7 7 7 7 7 7 7 7 8 8 8 8 8 9 10 10 11 11 12
5 7 9 8 2 8 10 8 7 9 11 12 12 10 9 9 8 8 7 6 5 5 6 6 5 5 5 5 6 6 6 6 7 7 7 8 8 8 8 8 8 8 8 9 9 10 10 11 11
5 6 8 7 3 10 10 9 10 11 11 13 13 13 12 11 11 9 8 6 4 3 3 3 2 2 3 4 4 5 6 7 7 8 8 9 10 10 10 10 9 9 9 9 9 10 10 10 11
7 7 8 5 4 9 12 10 11 13 12 13 13 13 14 14 14 12 11 9 7 6 4 2 1 2 4 5 6 6 7 7 8 9 9 10 11 12 12 12 11 11 10 10 10 10 10 10 11
12 10 8 6 5 8 12 12 13 14 15 14 14 15 16 16 16 15 14 12 10 9 7 5 4 4 5 6 8 9 9 9 9 10 10 10 11 12 13 13 12 11 11 11 11 10 11 11 11
17 14 10 6 5 10 14 14 15 15 15 14 14 14 15 16 17 17 16 14 12 11 9 8 7 6 7 8 9 11 11 11 11 11 11 11 11 12 12 13 12 12 12 12 12 12 12 12 13
22 18 14 10 13 16 17 16 16 15 15 15 14 14 15 16 17 17 16 16 14 13 12 11 10 10 10 11 12 12 12 12 12 11 12 12 13 13 13 13 13 13 13 13 13 14 14 14 14
27 23 21 15 19 23 20 17 17 17 17 16 15 15 13 15 16 16 16 16 16 15 15 14 14 14 15 15 15 15 14 13 13 13 14 15 15 14 14 14 15 15 15 15 15 15 16 16 16
31 29 27 25 23 23 23 21 19 19 19 21 20 18 15 14 15 16 17 17 17 17 18 17 18 18 18 18 17 17 16 15 15 16 17 17 17 17 17 17 17 17 18 17 17 17 17 17 17
33 32 32 30 29 26 23 23 22 23 25 26 26 21 19 17 17 17 17 18 17 18 18 19 19 20 20 21 20 20 19 18 19 19 20 20 21 21 21 21 21 21 21 20 20 20 19 18 17
35 35 35 34 32 30 28 26 25 26 29 29 27 22 21 21 21 21 21 21 19 19 19 20 20 21 22 22 23 23 22 22 22 22 24 25 25 26 27 27 26 26 25 25 23 22 21 20 20
40 39 38 36 35 32 31 29 27 28 31 31 31 29 27 26 26 25 24 24 23 22 22 22 22 23 24 25 25 25 25 24 25 25 26 28 29 30 31 32 32 31 30 28 27 26 24 23 22
37 38 39 36 36 35 33 31 26 29 33 34 34 32 31 31 31 29 28 28 27 26 26 26 26 26 27 28 29 28 27 27 27 28 29 31 33 34 34 35 36 35 35 33 30 28 26 25 24
32 33 34 33 30 32 32 32 24 27 34 37 37 36 35 35 34 33 32 31 31 30 29 30 31 31 31 32 32 31 31 30 30 30 31 32 34 35 37 37 37 38 37 35 33 30 28 27 26
21 21 24 26 23 27 30 30 26 28 34 37 38 39 39 39 38 37 36 34 34 33 33 34 35 35 35 35 35 35 34 33 33 33 34 34 36 38 38 38 38 38 36 35 34 32 29 28 27
22 24 24 21 19 25 29 30 29 31 34 36 38 37 37 39 39 38 37 37 36 36 36 37 38 38 39 38 38 37 36 35 35 35 36 37 38 40 41 39 40 40 38 38 35 33 30 29 27
28 30 28 24 22 26 32 32 30 31 33 36 40 44 42 39 37 36 37 39 40 39 39 40 41 41 41 41 40 38 37 36 37 38 39 40 41 42 43 43 42 41 41 39 36 34 31 30 29
28 28 28 28 25 27 32 36 35 34 37 41 44 46 48 47 44 41 42 42 43 43 42 42 42 42 42 41 40 39 39 38 38 39 40 42 43 44 45 44 44 43 42 40 38 35 33 31 30
26 22 24 27 27 28 28 31 31 30 37 43 47 48 49 49 47 46 45 43 44 44 44 43 43 42 41 41 40 40 40 40 41 42 43 44 45 46 46 46 46 46 45 43 40 37 34 32 32
26 26 28 30 32 34 32 31 28 24 30 38 42 43 43 45 46 45 44 43 43 44 44 44 43 41 40 40 39 40 40 41 42 44 45 46 47 48 48 48 48 46 45 43 41 38 36 34 32
31 33 36 36 35 37 35 34 34 29 32 40 44 42 41 41 41 40 41 42 42 43 43 43 42 41 40 40 40 41 42 43 45 46 47 48 49 49 49 48 46 45 43 41 40 37 36 35 33
28 31 34 35 35 38 32 31 32 35 41 46 46 45 42 39 35 35 37 39 41 41 41 41 42 42 42 42 43 43 45 46 47 48 49 49 49 49 48 46 45 43 42 40 38 36 36 35 35
22 27 32 34 33 32 28 32 37 42 46 48 50 50 50 49 46 43 42 41 42 42 42 42 43 44 45 45 46 47 48 48 49 49 50 49 48 47 45 43 42 41 40 38 37 36 35 35 34
24 26 29 35 38 39 38 38 41 42 45 49 52 52 52 53 52 50 48 46 46 45 45 45 46 47 48 48 49 49 49 49 49 49 48 47 45 43 41 40 39 37 36 35 34 34 33 32 31
29 30 32 36 40 41 40 37 43 47 47 46 47 52 53 54 52 51 50 49 48 48 48 48 49 50 50 50 50 49 49 48 48 47 44 42 41 39 38 36 35 34 33 33 32 32 31 30 29
31 32 34 37 40 42 42 39 43 46 47 49 48 46 48 49 48 48 47 46 47 47 48 49 49 49 49 49 48 47 46 45 43 41 40 38 38 37 36 35 34 31 30 29 29 29 29 28 28
32 34 36 38 40 42 42 41 41 42 47 50 50 49 46 42 41 41 41 41 42 42 43 44 45 45 45 44 43 42 41 39 38 37 37 37 36 34 33 31 29 28 27 28 28 28 28 27 27

GEFSSGP_500_meanwind_030.txt.gz
Wind_Speed
14 14 13 12 8 4 2 7 9 8 11 10 9 11 13 12 12 14 14 14 14 15 15 14 13 12 12 11 10 9 9 9 9 10 10 10 11 12 12 13 13 13 14 14 14 14 13 13 12
13 13 12 11 7 6 3 4 6 8 9 7 7 9 11 11 11 13 12 12 12 12 12 12 11 10 9 9 8 8 7 7 8 8 8 9 9 10 11 11 12 12 12 12 13 13 13 12 12
14 13 12 10 8 7 3 2 3 6 7 7 6 7 9 9 9 11 10 10 10 10 10 9 8 7 7 6 6 5 5 5 5 6 7 7 8 9 9 10 11 11 11 11 12 12 12 12 12
15 14 12 9 9 6 3 2 4 4 5 5 6 6 6 6 6 7 8 7 7 7 7 6 6 5 4 4 3 3 3 4 4 5 6 7 7 8 9 9 10 10 11 11 11 11 12 12 12
15 14 13 10 10 6 2 2 4 3 4 5 6 7 6 5 5 5 5 5 4 4 4 3 3 2 1 1 2 3 4 5 6 7 7 7 8 9 9 9 10 10 11 11 12 12 12 12 12
13 13 12 10 11 8 4 4 6 5 4 5 7 8 8 7 7 6 5 4 3 1 1 1 1 1 1 2 3 4 6 7 8 9 10 10 10 10 10 10 10 10 11 11 12 13 13 13 13
11 11 12 10 11 8 5 7 9 8 8 7 7 9 10 9 9 10 8 7 6 5 5 5 4 4 4 4 4 6 7 8 9 10 11 11 11 10 10 10 10 10 11 12 12 13 14 14 15
10 10 12 14 13 8 6 9 12 10 9 8 9 10 11 10 10 12 13 11 10 9 8 8 8 7 6 5 6 7 8 10 10 11 11 11 11 11 11 11 10 10 11 12 13 14 14 15 16
13 12 14 16 16 12 7 10 14 12 9 9 11 13 13 12 12 13 14 14 13 13 12 11 10 9 8 8 8 8 9 10 10 10 10 10 10 10 11 11 11 11 11 12 13 14 15 16 16
16 15 17 18 18 17 13 13 14 13 10 10 11 13 15 14 13 13 14 15 14 14 14 12 12 12 12 11 11 11 11 11 11 10 10 10 10 10 10 11 12 12 13 14 14 14 16 16 17
20 19 21 22 22 21 18 16 15 14 13 13 13 14 16 16 15 14 14 15 15 16 15 15 15 15 15 15 14 14 14 13 12 11 11 11 11 12 12 13 14 15 16 17 16 16 17 17 19
26 24 25 26 26 25 22 20 20 18 16 16 16 16 16 16 17 16 16 16 16 17 17 17 18 18 17 17 17 16 16 15 14 13 12 12 12 12 13 14 16 16 18 18 19 19 20 20 20
31 29 29 30 31 29 26 25 25 24 21 19 19 19 19 18 18 18 18 18 18 18 18 18 18 19 18 18 17 17 17 16 16 15 15 14 13 13 13 15 17 18 20 20 21 22 22 22 22
34 33 33 33 34 32 30 29 28 27 26 25 24 23 22 21 21 21 22 22 21 20 20 20 20 20 20 19 19 18 18 17 17 17 17 16 16 15 15 16 17 19 21 22 23 24 24 23 23
37 37 36 34 34 33 33 32 31 30 30 29 28 27 26 25 24 24 26 27 26 25 24 24 24 23 23 23 22 21 20 20 20 20 20 19 19 20 19 20 20 22 23 24 25 25 25 24 24
37 38 37 34 34 32 35 34 31 33 34 32 31 31 30 29 28 29 30 30 30 29 29 28 27 27 27 27 26 25 24 23 23 23 23 23 23 23 23 23 24 24 25 27 28 28 27 25 25
32 33 33 32 32 31 34 34 31 34 37 36 35 35 35 34 33 32 33 34 34 33 33 31 31 31 30 30 29 29 27 27 26 26 26 26 26 25 25 26 27 27 29 30 31 30 28 27 26
25 28 30 32 30 29 32 34 31 32 35 37 38 38 38 38 38 37 37 37 36 35 35 34 33 33 32 32 31 31 30 30 29 29 29 29 28 28 28 29 29 30 31 32 33 32 31 30 28
25 27 29 30 28 29 31 34 32 30 33 35 38 39 40 41 41 40 37 38 39 37 34 36 35 35 35 34 34 33 33 32 32 31 31 30 30 30 31 31 31 32 33 35 35 35 34 33 32
26 27 27 26 24 26 28 28 27 29 30 33 37 40 41 43 42 39 38 37 37 35 35 36 37 37 37 36 36 36 35 35 34 33 33 32 31 31 32 32 33 34 35 36 37 38 37 36 35
28 27 27 27 26 27 29 27 26 27 30 34 39 41 43 44 44 43 42 40 38 38 36 37 38 39 39 39 38 37 36 36 36 35 34 33 32 32 32 33 34 35 37 38 39 39 38 37 36
29 28 29 30 29 29 30 32 30 31 33 37 40 43 44 44 45 44 43 41 39 38 37 38 40 40 40 39 37 35 36 35 35 35 34 33 32 32 32 33 34 36 37 39 40 40 40 39 38
31 31 32 33 33 32 33 37 35 36 39 41 42 44 45 45 44 43 42 41 40 37 36 36 38 39 38 36 34 34 34 33 34 33 31 31 31 31 32 34 36 38 39 39 40 41 41 40 38
30 31 32 33 34 35 33 38 40 40 42 44 45 45 45 45 44 44 43 43 41 40 38 36 34 33 32 31 31 32 32 32 32 30 30 31 32 34 35 37 38 39 39 40 40 40 40 39 37
24 25 27 29 31 33 32 36 40 40 43 45 47 47 47 47 47 46 45 44 42 41 40 38 36 33 31 30 30 31 31 31 31 31 31 33 34 36 37 38 39 39 40 39 38 38 37 37 36
18 21 23 25 26 26 28 33 36 39 41 43 44 46 48 49 50 49 47 47 47 47 45 43 41 39 35 34 34 34 33 33 33 34 35 36 37 38 39 40 40 40 39 38 36 35 35 34 33
19 22 25 28 30 30 29 29 33 36 40 42 44 46 47 50 51 52 51 48 50 49 47 46 45 43 41 39 38 37 37 37 37 37 37 39 39 40 41 41 40 38 36 34 33 33 33 33 32
20 21 24 28 33 35 35 34 36 38 41 44 45 47 49 50 52 53 54 52 51 50 49 49 49 49 46 43 40 39 39 39 39 39 40 40 41 41 40 38 36 34 33 32 31 31 30 30 30
20 21 24 26 29 33 36 36 35 39 42 45 47 50 52 52 52 53 54 53 49 49 48 48 48 48 46 43 40 39 38 38 39 40 39 38 38 37 35 34 33 32 31 30 30 29 28 27 27
19 21 23 26 28 30 35 37 35 37 40 43 45 47 49 50 50 48 48 48 46 45 42 42 43 43 43 41 39 37 36 36 37 36 35 35 34 33 33 32 32 31 31 31 30 29 28 27 27

GEFSSGP_500_meanwind_036.txt.gz
Wind_Speed
10 9 7 6 5 8 10 10 14 16 15 12 10 10 10 10 10 10 11 11 11 11 10 9 8 8 8 9 10 11 11 11 11 11 11 11 12 13 14 14 14 14 14 14 14 14 14 13 13
10 9 7 5 4 6 6 7 9 12 12 11 10 9 9 9 8 9 9 9 9 8 7 6 6 6 7 7 8 9 9 9 9 9 9 10 10 11 12 12 13 13 13 13 12 12 12 12 12
12 10 8 6 4 2 3 4 5 7 8 8 9 9 8 7 7 6 6 6 6 6 4 4 5 5 6 7 7 7 8 8 8 8 8 9 9 10 10 11 11 12 12 12 12 12 11 10 10
13 11 9 8 6 4 3 3 4 4 4 4 5 6 6 4 4 4 3 4 4 3 2 3 4 5 5 6 6 7 7 7 8 8 9 8 9 9 9 9 10 11 11 11 11 11 11 10 9
14 13 11 10 9 6 5 5 6 6 5 3 2 3 3 2 1 1 1 2 2 2 4 4 4 5 5 5 5 6 7 7 8 8 8 8 8 8 8 9 9 9 10 10 10 11 11 10 10
16 14 14 13 11 9 7 7 7 9 8 5 5 5 5 4 4 3 3 3 3 4 5 6 5 5 5 5 5 5 6 7 8 8 8 8 8 7 7 7 7 8 9 10 10 10 11 10 10
16 15 15 15 13 11 10 10 9 9 8 6 7 8 8 7 7 7 7 7 7 7 7 7 7 7 7 6 6 6 6 7 8 9 8 8 7 7 6 6 6 7 8 9 10 11 11 11 11
14 16 17 16 14 12 11 11 10 9 8 8 8 9 10 9 10 11 10 11 11 10 10 9 9 9 9 8 8 7 7 8 9 9 9 8 7 7 6 5 6 6 7 9 10 11 12 12 12
14 16 17 17 15 13 11 10 9 8 7 7 8 9 10 11 11 11 12 13 13 13 12 12 11 11 11 11 11 10 10 11 11 11 10 9 9 8 7 7 6 7 8 9 10 12 13 13 14
15 16 18 18 17 15 13 11 9 8 8 8 7 8 9 11 11 12 13 13 14 14 15 14 13 13 13 13 14 14 14 14 13 13 12 11 11 10 9 9 8 8 9 10 11 12 13 14 15
18 19 20 20 20 18 16 14 11 9 10 9 8 7 8 10 11 12 13 14 14 15 15 15 15 15 15 16 16 17 16 16 15 15 15 14 13 12 11 10 10 10 10 10 11 12 13 15 16
23 23 24 25 24 22 20 18 15 13 13 12 10 10 11 11 12 13 14 14 15 15 16 16 16 17 17 18 18 18 17 17 17 16 16 16 15 14 13 13 13 12 12 12 12 12 13 15 16
28 28 29 28 27 25 24 23 21 18 18 16 15 15 14 14 15 15 16 17 17 18 18 18 18 19 19 20 20 20 20 20 20 19 18 18 17 17 16 16 15 15 15 15 14 14 15 16 17
32 31 31 31 31 30 29 29 27 25 24 23 21 20 20 19 19 18 19 20 20 21 21 21 21 22 22 23 23 23 23 23 22 22 21 21 20 20 19 19 19 18 18 17 16 16 17 18 18
36 34 34 34 35 35 35 34 33 31 30 29 27 26 25 23 22 22 22 23 23 24 24 24 25 25 25 26 26 27 28 27 26 26 25 24 23 22 22 22 21 21 21 20 19 19 20 20 21
39 38 38 37 38 39 40 39 37 37 35 34 33 31 30 28 27 26 26 26 27 27 27 27 28 29 30 30 31 31 32 32 31 30 29 28 26 25 24 24 24 23 23 23 22 21 22 23 23
41 41 41 40 41 42 44 44 41 41 40 39 38 36 35 34 33 31 31 30 30 30 30 30 31 32 32 33 34 33 35 36 35 33 33 32 30 28 26 26 26 25 25 25 25 24 25 25 25
37 40 41 41 42 45 46 47 45 44 43 43 42 41 40 38 37 36 35 34 32 32 32 33 33 34 35 36 36 37 37 38 37 37 36 35 33 31 29 28 28 27 27 27 27 27 27 28 28
30 32 34 35 38 42 44 45 45 44 43 43 43 43 42 40 39 38 37 36 35 34 34 34 34 35 37 38 38 38 40 40 40 41 40 38 36 34 32 32 31 30 29 29 29 30 30 31 31
25 26 27 28 31 34 36 38 39 40 40 41 40 40 39 39 39 38 38 37 35 35 35 35 36 37 38 38 39 41 42 44 44 44 43 41 39 37 35 34 33 32 31 31 31 31 31 32 34
27 27 28 28 28 30 31 31 32 34 35 37 37 36 36 36 37 37 38 37 35 35 34 34 36 38 38 37 39 41 44 45 45 45 45 45 43 41 39 36 35 34 32 31 31 31 31 33 35
29 29 30 30 29 30 31 32 31 32 34 35 35 35 35 36 37 38 38 38 38 38 36 37 38 39 40 40 41 42 43 42 43 44 44 43 42 41 40 37 35 34 31 30 30 31 33 34 36
28 29 30 30 30 30 31 34 34 33 35 36 37 38 38 39 40 41 41 42 42 42 41 40 41 41 42 42 43 43 43 42 42 42 42 41 40 38 37 34 31 30 29 29 30 31 33 34 36
27 27 28 29 30 31 30 32 34 33 34 37 40 42 43 44 45 46 47 47 48 47 47 46 46 46 45 46 45 45 44 42 39 35 33 33 34 33 32 30 28 28 29 29 30 32 34 35 36
22 23 24 25 26 27 27 29 30 30 32 35 39 43 46 49 50 51 52 52 52 52 51 51 51 51 50 50 48 46 44 40 38 32 30 31 31 30 30 29 28 28 29 30 32 34 35 35 35
17 19 21 23 22 20 21 24 25 26 29 32 35 39 43 47 51 53 55 56 56 56 56 56 55 54 53 52 50 47 42 36 33 31 30 31 30 30 31 31 31 31 32 33 34 35 35 34 33
16 17 19 22 22 21 20 20 22 25 28 31 33 36 39 42 46 49 52 54 55 55 55 55 54 54 54 53 49 44 39 36 34 33 32 31 31 30 32 33 33 34 34 35 34 34 33 32 31
16 16 17 20 22 22 20 19 22 25 27 29 32 35 37 39 42 45 48 51 53 54 54 54 53 53 52 50 47 42 38 36 35 34 34 33 32 33 34 34 34 34 34 33 32 31 30 30 29
17 18 19 20 22 24 24 20 24 26 27 29 32 34 36 39 41 43 44 46 47 48 49 50 50 48 46 45 41 40 36 34 34 35 35 33 33 33 34 33 33 33 33 32 31 30 29 29 28
19 19 20 22 23 24 27 24 26 27 29 31 32 34 36 37 38 39 39 39 39 40 40 41 42 41 39 37 34 33 34 34 34 34 34 34 34 33 33 32 32 32 32 32 31 31 30 30 30

GEFSSGP_500_meanwind_042.txt.gz
Wind_Speed
10 12 13 13 14 14 11 11 12 13 14 14 14 14 13 13 12 11 11 10 9 8 7 6 6 5 5 6 6 7 7 7 8 8 9 9 9 9 9 9 9 9 8 8 7 6 6 6 6
7 8 10 12 13 10 10 10 10 11 12 12 12 12 12 12 11 10 9 8 7 6 6 5 5 5 5 5 6 6 6 7 7 8 8 8 8 8 8 8 8 8 7 6 6 5 5 4 4
5 6 7 8 8 8 9 9 8 9 10 10 10 11 11 10 10 9 7 6 5 5 4 5 5 5 5 5 5 6 6 6 7 7 7 7 7 7 7 7 6 6 6 6 5 5 4 4 4
6 5 5 5 4 5 5 6 6 7 8 8 9 9 10 9 9 8 6 5 4 3 3 4 4 4 5 5 5 6 6 7 7 7 7 7 7 6 6 5 5 5 5 6 6 6 6 5 5
8 6 5 4 4 4 3 3 3 4 6 7 8 9 9 9 8 7 6 5 4 3 2 1 2 4 5 5 5 6 6 7 7 7 7 7 7 6 5 5 5 5 5 6 6 6 7 7 7
9 8 8 8 6 6 4 3 3 3 5 7 8 9 9 9 8 7 7 6 6 4 3 2 3 4 5 6 6 6 7 7 7 7 7 7 7 7 5 5 5 5 5 6 6 7 8 8 8
11 11 11 10 9 8 7 6 5 6 7 8 9 10 10 9 9 9 9 9 8 8 7 6 6 7 8 8 8 8 8 7 8 8 8 8 8 8 7 6 6 6 6 7 7 7 9 9 9
11 11 12 12 11 10 9 8 6 6 8 9 10 11 11 10 10 10 10 10 11 10 10 10 10 10 11 11 11 10 10 10 10 10 10 10 10 9 9 8 8 8 8 8 9 9 10 10 10
13 13 14 13 11 10 10 9 7 6 6 7 8 10 11 10 10 11 11 11 12 12 12 12 13 13 13 13 13 13 13 13 13 12 12 12 11 11 11 10 10 11 11 11 10 11 11 11 11
15 16 17 13 11 10 10 9 8 7 5 5 5 7 9 10 10 10 11 11 12 13 13 13 14 14 14 14 15 15 15 15 15 15 14 13 13 13 13 13 13 13 13 13 13 13 13 12 11
19 19 18 15 13 12 11 10 10 9 8 6 5 6 7 9 10 11 11 11 12 13 13 13 14 14 15 15 16 16 16 16 16 16 16 16 16 16 16 16 16 16 16 16 15 15 15 14 14
23 22 21 20 18 16 15 13 13 13 13 11 9 8 9 11 12 12 13 13 13 14 14 15 16 16 17 17 18 18 18 18 18 18 18 18 18 18 18 19 19 19 19 19 18 18 18 18 17
27 25 24 24 23 22 21 19 18 19 18 16 14 14 14 14 14 15 16 17 17 18 18 19 19 20 20 20 21 21 21 21 21 21 21 21 21 21 22 22 22 22 22 22 22 22 21 21 20
31 29 29 29 29 28 26 25 25 26 23 22 21 20 20 19 19 20 21 22 22 23 23 23 24 24 25 25 25 26 26 25 26 25 25 25 25 25 25 26 26 26 26 26 25 25 25 24 23
34 33 33 34 34 34 31 30 34 31 29 28 27 26 26 26 26 26 26 27 27 28 28 28 28 29 29 30 30 30 30 29 30 30 30 29 30 30 30 30 30 29 29 29 29 28 28 27 26
39 37 38 40 38 38 35 35 41 36 35 34 33 32 32 32 32 32 32 32 33 33 33 33 33 33 34 34 35 34 34 34 34 35 34 34 34 35 34 34 34 33 32 32 31 31 30 29 29
42 42 43 43 42 42 40 41 46 41 40 39 38 37 37 37 37 37 37 38 38 38 38 38 38 38 39 39 39 39 39 38 38 39 38 39 39 39 39 38 38 37 36 35 34 34 33 32 31
39 41 42 44 45 44 44 45 47 45 44 43 43 43 42 42 42 43 43 43 43 43 43 42 42 42 43 43 43 43 43 42 42 42 42 43 43 43 43 42 42 41 39 38 37 37 36 36 34
29 31 35 38 42 43 46 47 48 47 46 45 45 45 45 45 45 46 46 47 47 47 47 46 46 46 46 46 46 45 45 45 45 45 45 46 46 46 46 46 45 45 43 42 41 40 40 38 37
22 24 27 30 32 34 38 41 44 45 45 44 44 44 44 44 44 45 45 46 47 47 47 47 48 48 49 49 49 48 47 47 46 46 45 45 47 48 47 47 47 47 46 44 44 43 41 40 39
23 24 26 26 27 28 32 33 37 37 38 39 39 40 40 40 40 40 41 42 43 44 45 45 46 47 49 49 49 48 48 47 45 46 46 46 47 48 48 48 49 48 47 45 45 45 42 41 40
26 27 27 28 28 29 32 33 34 37 36 38 39 39 39 39 39 39 40 40 41 42 43 45 46 47 47 48 49 49 48 48 47 47 47 46 47 47 47 48 49 49 48 47 46 45 43 43 41
26 27 27 28 29 30 31 33 31 37 36 37 39 39 40 40 40 40 41 41 42 43 44 46 47 48 49 50 50 50 51 50 49 48 47 46 46 47 47 48 47 47 47 44 41 39 40 39 37
23 24 25 25 26 27 27 29 30 31 32 33 35 36 37 38 39 39 40 41 42 44 45 46 48 49 50 51 52 53 53 53 52 50 49 48 48 48 48 47 47 46 46 42 40 39 37 35 33
18 19 20 19 18 19 23 24 25 26 26 27 29 30 31 32 34 35 36 38 40 42 44 46 48 49 51 52 53 54 54 54 53 52 51 50 50 49 48 47 44 42 42 40 38 36 35 32 31
15 17 18 19 19 19 20 21 22 23 24 25 26 27 27 28 30 31 33 34 36 39 41 44 46 49 51 52 53 54 54 54 53 53 52 51 50 48 47 44 43 42 41 38 36 33 32 30 29
14 16 18 20 20 20 19 19 21 23 24 25 25 25 26 27 27 29 30 32 34 37 39 42 44 47 50 52 55 56 55 55 55 54 53 52 49 47 45 43 41 39 38 37 33 30 29 29 29
17 18 19 21 23 23 21 21 23 25 25 25 26 26 26 26 27 28 29 31 33 34 36 38 40 42 44 47 50 52 54 54 53 52 51 49 48 46 44 44 40 38 36 34 31 29 28 28 29
20 21 23 24 26 27 27 25 26 27 28 28 28 28 27 27 28 29 30 31 32 34 35 36 37 38 40 41 43 44 46 48 48 48 47 46 45 44 44 42 40 38 35 33 31 30 29 29 29
21 23 25 26 28 30 32 30 29 30 31 31 30 30 29 29 29 30 30 31 32 32 33 34 34 35 36 37 38 38 39 40 41 41 42 42 42 42 42 39 37 35 34 33 30 29 29 29 30

GEFSSGP_500_meanwind_048.txt.gz
Wind_Speed
14 16 16 15 15 17 7 5 6 7 8 8 9 8 9 8 7 7 7 5 5 4 3 3 4 5 6 7 7 8 8 8 8 8 9 9 9 9 9 9 9 9 9 9 10 10 10 11 11
13 14 14 14 16 13 2 1 2 3 5 6 7 7 7 7 7 7 6 5 3 2 2 2 2 4 5 6 7 7 8 8 8 9 9 9 9 9 9 8 8 8 9 9 10 10 11 11 11
11 11 10 12 14 8 3 1 1 1 2 3 5 6 6 6 7 6 6 5 4 3 2 1 1 2 4 5 6 7 8 8 9 9 9 9 9 9 9 8 8 8 8 9 9 10 11 11 11
9 10 9 11 7 4 4 1 3 3 2 2 4 5 5 6 6 6 6 6 5 5 4 4 3 2 3 4 5 6 8 8 9 9 9 9 9 9 9 8 8 9 9 9 9 10 11 11 12
9 9 8 5 3 4 5 2 1 3 5 4 6 5 6 6 7 8 8 8 7 7 7 6 6 5 5 5 6 6 7 8 9 9 10 9 9 9 9 9 9 9 9 10 10 10 11 11 12
10 11 8 1 0 5 6 3 4 6 6 6 7 8 8 9 9 10 11 11 10 9 10 10 10 9 9 8 8 8 9 9 10 10 11 10 10 10 10 10 10 10 10 10 11 11 11 12 12
10 11 8 2 4 8 9 6 6 8 8 6 7 9 9 11 12 13 14 15 14 13 13 13 14 13 13 12 12 12 12 12 12 12 12 12 12 12 11 11 11 11 12 12 12 12 12 12 12
9 9 9 1 6 9 11 8 9 9 9 8 8 10 8 10 12 14 15 16 17 16 16 17 16 16 16 15 15 15 14 14 15 15 15 15 14 14 13 13 13 13 13 14 14 14 14 14 14
10 10 8 5 8 10 13 10 11 11 11 10 9 10 9 10 11 12 14 15 17 17 17 17 17 17 17 16 16 16 16 16 17 17 17 17 16 15 15 15 14 15 15 16 16 16 16 16 15
11 12 7 9 12 15 13 12 11 10 10 11 11 10 10 10 10 11 13 14 15 16 16 16 16 16 16 16 17 17 17 18 18 18 19 18 18 17 17 17 17 17 17 17 18 18 18 18 17
14 14 13 13 15 15 13 11 11 9 8 12 12 13 11 12 12 12 13 14 14 15 16 16 16 16 17 18 18 19 19 20 20 20 21 21 21 20 19 19 20 20 20 20 20 20 21 20 20
19 18 19 18 17 16 15 14 13 13 15 17 15 16 16 15 15 15 16 16 16 17 17 18 19 19 20 21 21 22 22 22 23 23 24 24 24 24 23 23 23 23 24 24 23 23 23 23 23
23 22 22 21 20 19 18 18 17 19 20 20 19 20 20 20 20 21 21 21 22 22 22 23 23 24 25 25 26 26 26 26 26 26 27 28 28 28 27 27 27 27 27 27 27 27 26 26 26
27 27 26 24 24 24 24 22 21 22 26 25 24 25 25 25 26 26 27 27 28 28 28 28 28 29 29 30 31 31 31 31 31 31 31 32 33 33 33 33 33 33 32 31 31 31 31 30 30
30 29 27 27 28 29 29 27 24 24 30 30 29 30 30 30 31 32 33 32 33 34 33 33 33 34 34 35 35 35 35 36 35 36 35 35 36 37 37 37 37 37 37 36 36 35 35 35 34
31 31 30 27 29 31 33 31 24 26 34 35 34 33 34 34 35 36 38 37 37 39 38 38 38 39 39 39 39 40 40 40 40 40 40 39 39 41 41 41 41 41 41 40 39 38 38 38 37
28 28 27 22 27 35 37 34 26 30 36 40 39 39 38 40 41 41 41 42 42 42 43 43 43 44 44 44 43 44 43 43 43 43 43 43 42 43 44 44 43 44 44 43 43 41 40 40 40
18 16 16 17 23 31 36 34 28 27 38 43 43 44 45 45 45 46 45 46 45 45 46 47 47 48 48 47 46 45 45 45 45 45 45 44 45 44 44 45 45 46 46 45 45 43 43 43 42
24 24 25 25 26 33 37 36 31 28 36 44 46 46 46 46 46 46 46 46 46 48 47 47 47 48 48 47 46 45 45 45 45 44 45 45 46 46 45 45 46 46 46 45 45 44 44 44 42
16 19 21 21 22 29 32 31 26 26 32 39 42 42 42 42 42 41 41 42 43 44 44 44 45 45 46 46 45 45 45 45 45 45 45 46 46 46 46 47 48 47 46 45 44 44 43 42 41
12 13 16 20 23 25 26 26 24 24 29 34 37 39 39 38 38 38 38 39 40 40 41 42 43 44 45 45 46 46 46 45 45 46 47 48 47 47 48 49 47 47 45 43 42 42 42 41 41
14 16 22 24 24 25 24 26 22 21 28 35 39 39 37 35 34 36 38 39 40 40 41 41 42 43 44 45 46 46 47 47 47 48 49 50 51 50 50 49 48 47 46 45 44 43 43 43 42
18 21 24 23 23 23 21 23 21 18 25 33 37 37 36 37 37 37 37 38 38 38 39 40 40 42 44 45 46 47 47 48 48 49 50 51 52 52 52 51 50 49 47 46 45 44 44 44 42
17 19 19 18 17 18 17 19 18 21 26 31 36 40 41 40 38 37 36 36 36 36 37 37 38 39 41 43 44 46 47 49 49 50 51 51 52 53 53 52 51 50 48 47 45 45 45 44 43
15 15 14 11 9 13 15 17 18 25 28 31 35 38 39 38 37 36 35 34 34 34 35 36 36 37 39 40 43 45 47 49 50 51 52 52 53 53 53 53 52 50 49 48 46 45 44 43 42
13 13 13 14 12 14 16 18 23 30 32 31 31 33 36 37 38 37 36 35 34 34 34 35 36 37 38 40 42 44 46 48 49 51 52 53 54 54 54 55 54 52 51 50 48 46 45 43 41
13 13 14 16 16 15 12 13 23 29 33 34 33 34 35 37 38 38 38 37 36 36 36 36 37 37 39 40 41 42 44 45 47 49 51 52 53 54 54 53 53 52 51 51 50 47 44 42 40
14 15 16 17 18 17 14 13 21 30 35 39 40 39 39 39 39 39 39 39 38 38 38 38 38 38 39 39 40 41 42 43 45 47 49 50 51 51 53 53 53 52 50 49 47 45 43 40 39
16 18 19 21 20 21 21 18 20 30 34 36 38 38 38 38 38 38 39 39 39 40 40 40 40 39 39 39 40 40 41 42 43 44 46 45 44 44 45 46 48 49 48 46 45 44 42 39 36
15 18 19 21 21 22 24 21 22 28 32 35 37 38 37 37 37 36 37 38 38 39 39 39 40 39 38 38 39 39 39 40 41 41 41 40 39 39 40 40 41 42 41 40 40 40 39 37 36

GEFSSGP_500_meanwind_054.txt.gz
Wind_Speed
15 14 12 9 6 5 8 8 7 5 4 4 5 5 6 6 5 4 5 5 4 6 7 7 8 9 9 9 10 10 11 11 12 12 12 13 13 13 13 13 13 13 13 13 14 14 15 15 15
13 12 10 7 5 6 8 7 5 4 4 4 4 4 4 5 4 2 3 3 3 4 5 6 7 7 8 8 8 9 9 9 10 11 11 12 13 13 13 12 12 12 12 12 12 13 14 15 15
11 10 8 6 6 7 7 6 3 3 5 3 3 3 4 3 2 0 1 2 3 4 5 6 7 7 7 8 8 8 8 8 8 9 10 11 12 12 13 12 12 11 11 11 12 12 13 14 14
10 9 6 4 6 7 6 5 3 1 2 1 1 1 2 2 1 1 2 3 5 6 7 7 8 8 8 9 9 9 8 8 8 9 10 10 11 12 12 12 12 12 11 11 11 12 12 13 13
11 8 6 4 5 6 5 4 4 4 3 2 2 2 2 1 2 3 4 5 6 7 8 8 9 9 10 10 11 11 11 11 11 11 11 11 12 12 12 12 12 12 12 12 12 12 12 12 12
13 11 8 6 4 3 3 4 6 8 6 5 4 5 5 4 4 5 7 8 7 9 10 10 10 11 11 12 12 12 12 12 12 12 12 12 13 13 13 13 13 13 12 12 12 12 12 12 12
14 13 11 8 5 2 1 3 6 8 9 8 7 8 8 7 6 6 9 11 9 10 11 11 11 11 11 12 12 12 12 12 12 13 13 13 13 14 13 13 13 13 13 13 13 13 13 13 13
16 15 13 10 7 4 3 5 6 8 11 10 10 10 10 10 8 6 8 11 11 11 12 12 12 11 11 12 12 12 12 12 13 13 13 14 14 14 14 14 14 14 14 14 14 14 15 15 14
17 18 16 14 10 7 6 7 8 10 10 11 11 10 10 11 10 7 7 10 11 11 12 12 11 11 11 11 11 12 13 13 13 14 14 14 14 15 15 15 15 16 16 16 16 16 16 16 16
17 19 19 17 14 10 9 8 11 13 12 10 10 10 10 11 11 10 8 9 11 12 12 12 12 12 12 13 13 14 14 15 15 15 15 16 16 16 17 16 16 16 17 17 18 18 18 18 18
17 19 20 19 16 12 10 10 12 16 16 14 11 11 11 11 13 15 13 11 12 13 14 15 15 15 15 16 17 17 18 18 18 18 18 18 19 19 20 19 19 19 19 19 19 20 20 21 21
20 20 21 21 18 13 11 11 13 17 19 18 16 15 15 15 15 17 18 17 16 17 17 18 20 21 21 21 23 23 22 22 22 22 22 22 22 22 22 23 23 23 23 23 23 23 23 23 23
23 23 23 22 19 16 14 14 15 17 21 23 22 22 21 20 20 20 21 22 22 23 23 24 25 26 27 27 27 27 27 27 27 27 27 27 27 26 26 25 26 27 27 27 26 26 26 26 26
26 25 24 21 19 18 19 19 18 19 23 27 28 28 27 26 25 25 25 26 27 27 28 29 30 31 33 33 33 32 31 31 30 30 30 30 31 31 31 30 30 30 30 30 30 29 29 28 28
29 26 24 21 21 21 24 23 22 23 25 28 31 32 32 32 30 29 29 29 30 31 33 34 35 36 37 38 38 37 36 35 34 33 33 33 34 34 35 35 34 33 33 33 32 32 31 30 30
29 27 25 24 24 24 27 25 24 24 25 27 30 33 35 36 36 35 35 34 35 36 37 38 39 39 40 41 40 41 40 38 37 37 37 36 36 37 37 37 37 36 35 35 34 34 33 32 31
29 29 27 26 26 27 28 27 24 24 25 27 30 33 35 36 38 38 37 37 37 38 38 39 40 40 40 39 41 42 41 40 40 40 39 38 38 38 38 38 38 38 37 36 35 35 34 33 32
27 28 26 24 24 26 26 25 24 24 25 27 31 34 35 35 35 35 34 35 36 37 38 38 40 40 39 37 38 39 39 39 40 40 40 40 40 39 38 39 38 38 39 37 37 36 35 34 33
22 22 21 21 22 23 23 24 24 24 25 28 32 33 33 32 32 31 32 34 35 36 37 39 40 40 40 39 38 38 37 38 39 40 40 40 40 40 39 39 38 39 39 39 38 37 36 34 33
16 19 21 22 24 24 25 25 25 26 26 28 31 31 30 30 30 30 32 32 33 36 39 40 42 42 41 40 41 40 40 39 38 39 39 40 41 41 42 42 41 40 41 41 40 38 37 36 35
15 18 20 22 25 27 28 28 29 30 30 29 29 28 27 27 28 31 33 33 35 38 40 40 41 41 41 41 41 40 40 39 38 38 39 40 41 42 43 42 42 42 43 43 41 40 39 37 36
15 17 18 18 21 24 28 30 28 28 27 26 25 26 26 26 28 31 34 34 36 38 38 38 39 39 39 40 40 40 40 39 38 38 38 39 40 41 41 42 42 43 43 43 42 42 40 38 37
13 15 15 15 16 18 22 25 22 21 21 22 23 24 25 26 29 32 33 35 36 35 35 35 36 37 38 38 39 39 39 39 38 38 38 38 39 40 41 42 43 43 43 43 43 43 42 41 39
11 12 12 13 14 16 17 20 18 18 18 19 20 21 23 25 28 30 32 33 33 34 34 34 35 36 37 38 38 39 39 39 39 39 39 39 39 40 41 42 42 43 43 43 44 44 44 44 42
8 8 8 9 11 12 14 18 17 17 17 18 19 22 23 25 28 29 31 32 32 33 33 33 34 35 36 37 38 39 40 40 40 40 40 40 40 40 41 41 42 43 43 44 45 45 44 45 44
6 6 6 5 6 8 13 16 17 18 19 21 23 25 26 27 28 28 30 30 31 32 32 33 33 34 35 36 37 38 39 40 41 41 41 41 41 41 41 42 43 43 44 45 46 46 45 46 45
6 6 7 7 6 7 11 16 18 20 22 24 26 27 27 28 28 29 30 31 32 33 34 34 34 34 35 36 37 38 39 39 40 41 42 42 42 42 42 43 43 43 44 45 46 45 45 45 44
8 8 9 9 10 8 8 12 18 21 24 26 27 28 28 28 29 30 31 32 33 34 35 35 35 35 36 36 37 38 38 39 40 40 41 41 42 42 43 42 42 43 44 44 44 43 42 41 41
9 10 11 13 14 15 14 12 18 21 23 25 27 28 30 31 31 32 33 33 34 34 35 36 37 37 37 37 37 37 37 38 38 39 39 40 40 41 41 41 41 41 40 40 40 39 39 39 38
12 13 15 17 18 19 20 19 21 23 25 27 29 31 33 34 35 35 35 36 35 35 36 37 37 37 38 38 37 37 36 36 36 36 37 38 38 38 38 38 38 38 37 36 35 35 34 34 34

GEFSSGP_500_meanwind_060.txt.gz
Wind_Speed
6 5 4 3 3 3 4 5 6 7 7 6 6 5 4 3 3 4 4 5 7 9 9 9 10 10 11 12 12 12 12 12 13 13 13 13 13 13 13 13 13 13 13 13 13 13 13 13 12
7 5 3 2 1 2 3 4 5 5 4 3 4 4 3 3 3 3 3 5 7 8 8 8 9 9 10 11 11 11 11 11 11 11 12 12 12 12 12 12 12 12 12 11 11 11 11 11 11
8 7 4 1 1 1 3 5 5 5 3 3 2 2 3 3 3 3 3 4 5 6 7 7 8 8 9 9 10 10 10 10 10 10 10 10 11 11 11 11 11 11 11 10 10 10 10 10 10
10 8 6 4 2 1 3 5 6 5 4 3 2 2 3 3 3 3 4 4 5 5 6 7 7 8 8 8 9 9 9 9 9 9 9 10 10 10 10 10 10 10 10 10 9 9 9 9 9
12 10 8 6 5 4 2 3 5 4 3 2 1 2 3 3 4 5 6 5 5 6 7 8 8 9 9 9 9 8 8 8 8 8 9 9 10 10 10 10 10 10 10 10 10 10 9 9 9
14 13 11 9 7 7 5 3 2 2 1 0 2 3 3 4 5 6 7 8 8 9 9 10 10 9 9 9 9 9 8 8 8 8 9 9 10 10 10 10 10 10 10 10 10 10 10 10 9
16 15 14 12 11 9 7 5 3 2 1 2 3 4 5 5 6 7 8 9 9 10 10 10 10 10 10 10 10 10 9 9 9 10 10 10 11 11 11 11 11 11 11 11 11 11 11 11 11
19 18 17 16 14 12 11 9 6 3 2 3 4 5 6 6 6 7 8 9 9 10 10 10 11 11 11 11 12 12 11 11 12 12 12 12 12 12 13 13 13 13 13 13 13 13 13 13 12
21 21 20 18 17 15 13 12 10 7 5 4 4 5 5 6 7 8 8 9 9 10 10 11 11 12 13 13 14 14 14 15 15 15 15 15 15 15 16 16 16 16 16 16 16 16 16 15 15
22 22 22 20 19 16 14 14 12 10 8 6 5 5 6 7 9 10 10 10 11 11 12 12 13 14 15 16 17 17 18 18 18 18 18 19 19 19 19 19 20 20 20 20 20 20 20 19 18
22 23 23 21 19 17 15 14 14 13 11 10 8 8 8 9 11 12 13 14 14 15 16 16 17 18 19 20 21 22 22 22 23 23 23 23 24 24 23 24 24 24 24 24 24 24 23 23 22
22 23 23 21 19 18 17 16 15 14 15 14 13 12 13 13 14 15 17 17 18 19 21 22 23 24 24 25 26 27 27 28 28 28 28 28 28 29 28 28 28 28 28 29 29 29 28 27 27
23 23 23 21 20 19 19 19 18 19 19 19 18 18 18 19 19 19 20 21 22 24 25 26 27 28 29 30 31 32 32 33 33 32 33 33 32 33 33 33 32 32 32 32 32 33 32 31 31
26 25 24 22 22 21 21 21 21 22 24 23 23 23 24 24 24 23 23 24 25 27 28 29 30 32 32 33 35 36 37 37 37 37 38 37 36 36 37 37 36 36 35 35 35 36 36 35 35
29 27 26 26 26 26 26 25 24 26 27 27 27 27 28 28 28 28 27 27 27 28 29 30 31 32 33 34 35 36 37 38 39 39 40 40 40 39 39 39 39 38 38 38 38 39 40 39 39
33 31 30 30 30 30 30 29 27 29 30 30 30 30 30 31 30 30 30 29 29 29 30 30 31 32 33 34 34 36 37 38 38 39 40 40 41 42 42 41 40 39 40 40 40 41 42 42 42
34 34 33 33 34 33 33 33 31 32 32 33 32 32 32 30 29 29 30 30 31 31 31 32 33 33 33 34 35 36 37 37 37 37 37 37 39 39 40 40 40 40 40 41 42 42 42 42 42
34 35 35 35 35 36 35 35 34 34 34 34 34 32 30 28 27 28 30 31 32 34 34 34 34 34 35 35 36 37 37 36 36 36 36 37 38 39 40 39 40 40 40 40 41 42 42 42 41
32 33 34 35 35 35 35 35 34 34 34 34 33 30 28 28 28 30 31 32 33 34 34 35 35 35 36 37 37 36 36 35 35 35 34 35 36 37 39 39 38 39 40 40 42 42 41 41 40
29 30 31 32 33 33 33 34 33 33 33 32 31 30 29 29 30 32 32 32 33 34 35 35 36 36 37 37 37 36 35 35 34 34 34 34 34 35 36 37 38 39 39 40 40 40 41 40 41
26 27 28 29 30 31 32 32 32 32 31 31 31 30 30 31 32 34 33 33 34 35 36 36 36 36 36 36 36 35 34 34 34 33 33 33 34 34 35 36 37 38 38 39 39 40 40 39 39
22 24 25 25 26 27 29 31 31 31 32 32 32 32 33 34 34 33 32 33 34 36 36 36 35 35 35 35 34 33 33 32 32 33 33 34 34 34 35 36 37 38 38 38 38 38 39 39 38
19 20 21 22 22 24 26 29 30 30 32 33 33 33 33 32 31 31 30 31 33 34 35 35 34 33 33 32 32 32 31 32 32 33 33 34 34 34 35 36 37 38 38 39 39 38 38 38 38
17 18 19 20 20 22 24 25 27 28 28 29 30 29 29 29 28 28 29 30 32 33 33 33 32 32 32 32 31 31 31 31 32 32 33 34 35 35 36 36 37 38 39 39 39 39 39 38 38
15 15 16 17 17 18 20 21 22 23 24 24 25 26 26 26 26 27 28 30 31 31 31 31 31 31 31 31 31 31 31 32 32 33 33 34 34 35 36 37 37 38 39 39 39 39 39 39 39
13 13 14 14 15 16 17 18 19 20 21 22 23 24 25 26 26 27 28 28 29 30 30 30 30 31 31 31 31 31 32 32 33 33 34 34 35 35 36 36 37 38 39 39 39 39 39 40 39
12 12 13 14 14 15 16 17 18 20 21 22 23 24 25 25 26 27 28 29 29 30 30 30 31 31 32 32 32 32 33 33 34 34 35 35 35 35 36 36 37 37 38 39 39 39 39 39 39
12 12 13 14 16 16 16 18 18 19 20 22 24 25 26 27 28 29 30 30 31 32 32 32 33 34 34 35 35 35 35 35 36 36 36 36 36 36 36 36 36 36 37 38 38 39 40 40 39
12 13 14 16 18 20 20 21 21 22 24 25 26 27 28 30 31 32 33 34 35 35 36 36 37 37 38 38 38 39 39 38 38 38 38 37 37 36 36 36 36 36 36 36 36 37 38 38 38
13 15 17 20 21 23 25 26 24 25 27 28 30 31 32 33 35 36 37 39 40 41 42 42 42 42 42 42 42 42 42 41 41 40 40 39 37 37 37 37 36 35 35 35 35 34 35 35 36